User: anonymous   Login
Location: Brno
(49.2000°N, 16.6330°E)
Time: 04:22:35
(UTC+02:00)
Language:

Meteor 1-4 Rocket - Orbit

View from above orbital plane
View from above orbital plane
View from above satellite
View from above satellite

Ground track
Ground track

The orbit data is extracted from the following two-line orbital elements,

1 04394U 70037B   16206.18540025  .00001573  00000-0  56583-4 0  9994
2 04394  81.2416  39.6619 0042199 161.7797 198.4962 15.27090404514697
Epoch (UTC): 24 July 2016 04:26:58
Eccentricity: 0.0042199
inclination: 81.2416°
perigee height: 455 km
apogee height: 513 km
right ascension of ascending node: 39.6619°
argument of perigee: 161.7797°
revolutions per day: 15.27090404
mean anomaly at epoch: 198.4962°
orbit number at epoch: 51469

The dashed part of the orbit path shows where the satellite is in the earth's shadow,  

DLR